Location: Albany
(35.0170°S, 117.8920°E)
Time: 01:16:01
(UTC+08:00)

Explorer 7 - Pass Details

Date: 28 January 2021
Orbit: 484 x 677 km, 50.3° (Epoch: 01 March)

Event Time Altitude Azimuth Distance (km) Brightness Sun altitude
Rises 15:02:20 0° 294° (WNW) 3,028 11.2 50.6°
Reaches altitude 10° 15:04:47 10° 288° (WNW) 2,121 10.7 50.1°
Maximum altitude 15:09:31 46° 214° (SW) 911 8.8 49.2°
Drops below altitude 10° 15:14:14 10° 140° (SE) 2,100 9.6 48.2°
Sets 15:16:39 0° 134° (SE) 2,995 10.2 47.7°
